IGO121 VOHS-VOGO

Flight info

Callsign IGO121
Flight time 0h 47m
Altitude 30000
Route BOGAT5 BOGAT W120 BBM BBM2A
Aircraft A21N/M-SDE2E3FGHIRWXY/LB1

Departure

Time 2026-05-04 14:27
Airport Rajiv Gandhi International Airport (VOHS)

Arrival

Time 2026-05-04 15:14
Airport Goa Dabolim International Airport (VOGO)
Time Latitude Longitude Altitude Speed Heading
2026-05-04 14:14 17.23430 78.42873 2003 ft 0 kts 358°
2026-05-04 14:15 17.23406 78.42874 2004 ft 2 kts 358°
2026-05-04 14:16 17.23375 78.42875 2004 ft 2 kts
2026-05-04 14:16 17.23361 78.42872 2004 ft 2 kts 24°
2026-05-04 14:17 17.23338 78.42852 2004 ft 2 kts 56°
2026-05-04 14:17 17.23331 78.42838 2004 ft 2 kts 73°
2026-05-04 14:17 17.23329 78.42818 2003 ft 1 kts 89°
2026-05-04 14:19 17.23329 78.42815 2003 ft 0 kts 89°
2026-05-04 14:19 17.23329 78.42846 2004 ft 5 kts 89°
2026-05-04 14:20 17.23329 78.42879 2005 ft 3 kts 89°
2026-05-04 14:20 17.23330 78.42921 2007 ft 7 kts 88°
2026-05-04 14:20 17.23332 78.42993 2010 ft 12 kts 88°
2026-05-04 14:21 17.23334 78.43149 2016 ft 7 kts 90°
2026-05-04 14:21 17.23335 78.43211 2016 ft 10 kts 89°
2026-05-04 14:21 17.23336 78.43296 2016 ft 13 kts 89°
2026-05-04 14:21 17.23337 78.43400 2018 ft 14 kts 89°
2026-05-04 14:22 17.23339 78.43507 2020 ft 14 kts 89°
2026-05-04 14:22 17.23340 78.43604 2024 ft 11 kts 89°
2026-05-04 14:22 17.23327 78.43668 2027 ft 6 kts 139°
2026-05-04 14:22 17.23301 78.43690 2028 ft 3 kts 146°
2026-05-04 14:23 17.23185 78.43715 2031 ft 15 kts 174°
2026-05-04 14:23 17.23118 78.43798 2035 ft 18 kts 108°
2026-05-04 14:23 17.23100 78.43938 2040 ft 20 kts 91°
2026-05-04 14:24 17.23102 78.44100 2045 ft 23 kts 89°
2026-05-04 14:24 17.23105 78.44282 2049 ft 26 kts 89°
2026-05-04 14:24 17.23108 78.44489 2051 ft 29 kts 89°
2026-05-04 14:24 17.23110 78.44705 2047 ft 29 kts 89°
2026-05-04 14:25 17.23112 78.44920 2040 ft 29 kts 89°
2026-05-04 14:25 17.23111 78.45279 2032 ft 14 kts 113°
2026-05-04 14:25 17.23033 78.45320 2033 ft 12 kts 184°
2026-05-04 14:26 17.22960 78.45286 2035 ft 11 kts 221°
2026-05-04 14:26 17.22916 78.45213 2036 ft 13 kts 262°
2026-05-04 14:26 17.22910 78.45023 2039 ft 53 kts 269°
2026-05-04 14:26 17.22901 78.44389 2044 ft 118 kts 269°
2026-05-04 14:27 17.22886 78.43328 2019 ft 174 kts 268°
2026-05-04 14:27 17.22875 78.41985 2437 ft 186 kts 268°
2026-05-04 14:27 17.22881 78.40649 3123 ft 189 kts 269°
2026-05-04 14:27 17.22659 78.39259 3559 ft 205 kts 243°
2026-05-04 14:28 17.21634 78.38158 3874 ft 223 kts 216°
2026-05-04 14:28 17.20281 78.37241 4147 ft 245 kts 214°
2026-05-04 14:28 17.18817 78.36256 4651 ft 256 kts 215°
2026-05-04 14:28 17.17322 78.35229 5337 ft 259 kts 216°
2026-05-04 14:29 17.14159 78.33268 6437 ft 281 kts 199°
2026-05-04 14:29 17.10199 78.32965 7794 ft 293 kts 179°
2026-05-04 14:30 17.08143 78.32964 8488 ft 297 kts 189°
2026-05-04 14:30 17.06253 78.32175 9142 ft 297 kts 219°
2026-05-04 14:30 17.04288 78.28546 10454 ft 300 kts 255°
2026-05-04 14:31 17.03689 78.26374 10804 ft 317 kts 255°
2026-05-04 14:31 17.02393 78.21716 11412 ft 351 kts 255°
2026-05-04 14:32 17.00954 78.16730 12556 ft 365 kts 254°
2026-05-04 14:32 17.00266 78.14376 13179 ft 368 kts 254°
2026-05-04 14:32 16.99491 78.11736 13844 ft 372 kts 254°
2026-05-04 14:32 16.98730 78.09143 14479 ft 376 kts 254°
2026-05-04 14:33 16.97960 78.06523 15106 ft 379 kts 254°
2026-05-04 14:33 16.97187 78.03894 15718 ft 383 kts 254°
2026-05-04 14:33 16.96401 78.01227 16324 ft 387 kts 254°
2026-05-04 14:33 16.95610 77.98539 16921 ft 391 kts 254°
2026-05-04 14:34 16.94810 77.95827 17507 ft 394 kts 254°
2026-05-04 14:34 16.94003 77.93089 18084 ft 398 kts 254°
2026-05-04 14:34 16.93188 77.90327 18651 ft 402 kts 254°
2026-05-04 14:34 16.92364 77.87535 19209 ft 406 kts 254°
2026-05-04 14:35 16.91530 77.84713 19757 ft 409 kts 254°
2026-05-04 14:35 16.90688 77.81862 20292 ft 413 kts 254°
2026-05-04 14:35 16.89841 77.78999 20813 ft 416 kts 254°
2026-05-04 14:35 16.88983 77.76096 21320 ft 420 kts 254°
2026-05-04 14:36 16.88118 77.73177 21812 ft 423 kts 254°
2026-05-04 14:36 16.87255 77.70264 22289 ft 426 kts 254°
2026-05-04 14:36 16.86368 77.67271 22740 ft 430 kts 254°
2026-05-04 14:36 16.85481 77.64281 23179 ft 434 kts 253°
2026-05-04 14:37 16.84592 77.61285 23621 ft 437 kts 253°
2026-05-04 14:37 16.83688 77.58239 24055 ft 440 kts 253°
2026-05-04 14:37 16.82781 77.55188 24473 ft 443 kts 253°
2026-05-04 14:37 16.81867 77.52114 24877 ft 446 kts 253°
2026-05-04 14:38 16.81254 77.50051 25141 ft 448 kts 253°
2026-05-04 14:38 16.80136 77.46295 25607 ft 451 kts 253°
2026-05-04 14:38 16.79410 77.43858 25896 ft 453 kts 253°
2026-05-04 14:38 16.78253 77.39973 26341 ft 456 kts 253°
2026-05-04 14:39 16.77474 77.37363 26629 ft 459 kts 253°
2026-05-04 14:39 16.76387 77.33717 27016 ft 461 kts 253°
2026-05-04 14:39 16.75444 77.30557 27334 ft 464 kts 253°
2026-05-04 14:40 16.73516 77.24103 27956 ft 468 kts 253°
2026-05-04 14:40 16.72552 77.20880 28252 ft 471 kts 253°
2026-05-04 14:40 16.71567 77.17590 28544 ft 473 kts 253°
2026-05-04 14:40 16.70591 77.14330 28827 ft 475 kts 253°
2026-05-04 14:41 16.69614 77.11069 29100 ft 477 kts 253°
2026-05-04 14:41 16.68626 77.07773 29422 ft 477 kts 253°
2026-05-04 14:41 16.66637 77.01147 29972 ft 479 kts 253°
2026-05-04 14:42 16.64646 76.94522 29978 ft 480 kts 253°
2026-05-04 14:42 16.62661 76.87927 29979 ft 480 kts 253°
2026-05-04 14:43 16.60666 76.81304 29979 ft 480 kts 253°
2026-05-04 14:43 16.58675 76.74701 29979 ft 480 kts 253°
2026-05-04 14:44 16.56669 76.68059 29979 ft 480 kts 253°
2026-05-04 14:44 16.54676 76.61468 29979 ft 480 kts 253°
2026-05-04 14:45 16.52663 76.54818 29979 ft 480 kts 253°
2026-05-04 14:45 16.50663 76.48219 29979 ft 479 kts 253°
2026-05-04 14:46 16.48663 76.41629 29979 ft 479 kts 253°
2026-05-04 14:46 16.46674 76.35085 29979 ft 479 kts 253°
2026-05-04 14:47 16.44651 76.28435 29979 ft 479 kts 252°
2026-05-04 14:47 16.42645 76.21847 29979 ft 479 kts 252°
2026-05-04 14:48 16.40676 76.15393 29979 ft 479 kts 252°
2026-05-04 14:48 16.38651 76.08760 29979 ft 479 kts 252°
2026-05-04 14:49 16.36645 76.02199 29979 ft 478 kts 252°
2026-05-04 14:49 16.34440 75.95692 29980 ft 478 kts 249°
2026-05-04 14:50 16.32103 75.89230 29979 ft 478 kts 249°
2026-05-04 14:50 16.29754 75.82742 29979 ft 478 kts 249°
2026-05-04 14:51 16.27423 75.76296 29979 ft 478 kts 249°
2026-05-04 14:51 16.25087 75.69840 29980 ft 478 kts 249°
2026-05-04 14:52 16.22751 75.63386 29979 ft 478 kts 249°
2026-05-04 14:52 16.20420 75.56952 29980 ft 477 kts 249°
2026-05-04 14:53 16.18080 75.50503 29775 ft 476 kts 249°
2026-05-04 14:53 16.16916 75.47298 28924 ft 483 kts 249°
2026-05-04 14:53 16.15710 75.43985 27876 ft 489 kts 250°
2026-05-04 14:54 16.14517 75.40706 27107 ft 488 kts 250°
2026-05-04 14:54 16.13331 75.37450 26591 ft 482 kts 250°
2026-05-04 14:54 16.12157 75.34224 26085 ft 475 kts 249°
2026-05-04 14:54 16.10983 75.30999 25512 ft 471 kts 250°
2026-05-04 14:55 16.09841 75.27864 24932 ft 467 kts 250°
2026-05-04 14:55 16.08691 75.24709 24351 ft 462 kts 250°
2026-05-04 14:55 16.07558 75.21600 23671 ft 461 kts 250°
2026-05-04 14:55 16.06434 75.18518 23083 ft 458 kts 250°
2026-05-04 14:56 16.05322 75.15472 22551 ft 453 kts 250°
2026-05-04 14:56 16.04202 75.12404 22032 ft 448 kts 250°
2026-05-04 14:56 16.03108 75.09409 21529 ft 443 kts 250°
2026-05-04 14:56 16.02026 75.06448 21032 ft 438 kts 250°
2026-05-04 14:57 16.00956 75.03519 20538 ft 433 kts 250°
2026-05-04 14:57 15.99888 75.00600 20043 ft 429 kts 250°
2026-05-04 14:57 15.98837 74.97726 19553 ft 425 kts 250°
2026-05-04 14:57 15.97809 74.94917 19070 ft 421 kts 250°
2026-05-04 14:58 15.96776 74.92097 18584 ft 417 kts 250°
2026-05-04 14:58 15.95754 74.89305 18098 ft 413 kts 250°
2026-05-04 14:58 15.94733 74.86521 17624 ft 402 kts 250°
2026-05-04 14:58 15.93765 74.83882 17146 ft 396 kts 250°
2026-05-04 14:59 15.92784 74.81207 16672 ft 393 kts 250°
2026-05-04 14:59 15.91823 74.78584 16209 ft 390 kts 250°
2026-05-04 14:59 15.89901 74.73350 15275 ft 385 kts 250°
2026-05-04 15:00 15.88951 74.70766 14810 ft 382 kts 250°
2026-05-04 15:00 15.88011 74.68211 14347 ft 379 kts 250°
2026-05-04 15:00 15.87079 74.65676 13886 ft 376 kts 250°
2026-05-04 15:01 15.84471 74.61041 12944 ft 373 kts 226°
2026-05-04 15:01 15.82564 74.59300 12502 ft 370 kts 218°
2026-05-04 15:01 15.80514 74.57671 12050 ft 367 kts 217°
2026-05-04 15:01 15.78492 74.56097 11604 ft 364 kts 217°
2026-05-04 15:02 15.76467 74.54511 11153 ft 362 kts 218°
2026-05-04 15:02 15.74489 74.52947 10719 ft 358 kts 218°
2026-05-04 15:02 15.72556 74.51410 10509 ft 347 kts 218°
2026-05-04 15:02 15.70672 74.49905 10385 ft 334 kts 219°
2026-05-04 15:03 15.68877 74.48468 10249 ft 322 kts 219°
2026-05-04 15:03 15.67137 74.47074 10114 ft 310 kts 219°
2026-05-04 15:03 15.65478 74.45745 9985 ft 299 kts 219°
2026-05-04 15:03 15.63850 74.44441 9642 ft 297 kts 219°
2026-05-04 15:04 15.62230 74.43143 9277 ft 295 kts 219°
2026-05-04 15:04 15.60606 74.41845 8922 ft 293 kts 219°
2026-05-04 15:04 15.59000 74.40562 8575 ft 290 kts 219°
2026-05-04 15:04 15.57429 74.39302 8233 ft 288 kts 221°
2026-05-04 15:05 15.56037 74.37848 7886 ft 283 kts 235°
2026-05-04 15:05 15.54996 74.36134 7862 ft 283 kts 244°
2026-05-04 15:05 15.54080 74.34315 7885 ft 284 kts 245°
2026-05-04 15:05 15.53194 74.32509 7905 ft 285 kts 245°
2026-05-04 15:06 15.52288 74.30669 7771 ft 287 kts 244°
2026-05-04 15:06 15.51383 74.28847 7394 ft 286 kts 244°
2026-05-04 15:06 15.50469 74.27020 7043 ft 284 kts 244°
2026-05-04 15:07 15.48669 74.23436 6374 ft 278 kts 244°
2026-05-04 15:07 15.47779 74.21667 6044 ft 276 kts 244°
2026-05-04 15:07 15.46903 74.19925 5718 ft 273 kts 244°
2026-05-04 15:07 15.46033 74.18198 5393 ft 270 kts 244°
2026-05-04 15:08 15.45144 74.16512 5285 ft 258 kts 241°
2026-05-04 15:08 15.44356 74.14918 5262 ft 243 kts 250°
2026-05-04 15:08 15.43847 74.13236 5167 ft 243 kts 258°
2026-05-04 15:08 15.43510 74.11526 4914 ft 241 kts 260°
2026-05-04 15:09 15.43214 74.09831 4648 ft 238 kts 260°
2026-05-04 15:09 15.42915 74.08164 4377 ft 234 kts 260°
2026-05-04 15:09 15.42608 74.06525 4106 ft 230 kts 259°
2026-05-04 15:10 15.41992 74.03347 3676 ft 218 kts 259°
2026-05-04 15:10 15.41689 74.01801 3511 ft 219 kts 258°
2026-05-04 15:10 15.41090 73.98744 2921 ft 214 kts 258°
2026-05-04 15:11 15.40797 73.97241 2630 ft 215 kts 258°
2026-05-04 15:11 15.40504 73.95739 2402 ft 205 kts 258°
2026-05-04 15:11 15.40232 73.94338 2126 ft 191 kts 257°
2026-05-04 15:11 15.39982 73.93048 1879 ft 174 kts 257°
2026-05-04 15:12 15.39757 73.91888 1604 ft 158 kts 257°
2026-05-04 15:12 15.39551 73.90826 1363 ft 145 kts 256°
2026-05-04 15:12 15.39352 73.89802 1174 ft 144 kts 256°
2026-05-04 15:12 15.39154 73.88785 998 ft 144 kts 256°
2026-05-04 15:13 15.38958 73.87774 818 ft 144 kts 256°
2026-05-04 15:13 15.38771 73.86755 598 ft 143 kts 257°
2026-05-04 15:13 15.38574 73.85761 391 ft 140 kts 256°
2026-05-04 15:13 15.38376 73.84783 219 ft 139 kts 257°
2026-05-04 15:14 15.38187 73.83868 163 ft 109 kts 257°
2026-05-04 15:14 15.38075 73.83274 160 ft 59 kts 260°
2026-05-04 15:14 15.38023 73.83009 165 ft 13 kts 257°
2026-05-04 15:14 15.38053 73.82952 163 ft 11 kts 339°
2026-05-04 15:15 15.38142 73.82930 158 ft 15 kts 349°
2026-05-04 15:15 15.38234 73.82907 154 ft 5 kts 309°
2026-05-04 15:15 15.38227 73.82867 154 ft 5 kts 252°
2026-05-04 15:16 15.38209 73.82789 155 ft 5 kts 258°
2026-05-04 15:16 15.38201 73.82752 155 ft 5 kts 258°
2026-05-04 15:16 15.38187 73.82680 155 ft 4 kts 258°
2026-05-04 15:17 15.38194 73.82658 155 ft 4 kts 337°
2026-05-04 15:17 15.38218 73.82655 154 ft 0 kts 354°